Flag for Canada Weather past 2 weeks in Prince George, British Columbia, Canada

Now
27 °F

Clear.


Feels Like: 21 °F
Forecast: 19 / 33 °F
Wind: 5 mph from South

Location: Prince George

Current Time: Jan 28, 2015 at 2:02:32 AM

Latest Report: Jan 28, 2015 at 1:00 AM


Visibility: 9 mi

Pressure: 30.25 "Hg

Humidity: 86%

Dew point: 23 °F

Location of Prince GeorgeLocation

Historic Weather in Prince George — Graph

°F

Prince George temperature yesterday

Maximum temperature yesterday: 43 °F (at 1:00 PM)
Minimum temperature yesterday: 25 °F (at 11:00 PM)
Average temperature yesterday: 35 °F

Past Weeks' High & Low Weather Summary

 TemperatureHumidityPressure
High43 °F (Jan 25, 2:00 AM)100% (Jan 13, 5:00 AM)30.45 "Hg (Jan 13, 5:00 AM)
Low16 °F (Jan 14, 7:01 PM)57% (Jan 27, 4:00 PM)29.50 "Hg (Jan 18, 6:00 AM)
Average32 °F90%30.02 "Hg
* Reported Jan 13 1:00 AM — Jan 28 1:00 AM, Prince George, Weather by CustomWeather, © 2014

Note: Actual official high and low records may vary slightly from our data, if they occured in-between our weather recording intervals... More about our weather records

Advertising

Prince George weather history for previous 24 hours

 ConditionsComfort  
Time TempWeatherWind HumidityBarometerVisibility
1:00 AM
Jan 28
27 °FClear.5 mph86%30.25 "Hg9 mi
12:00 AM28 °FClear.5 mph86%30.23 "Hg9 mi
11:00 PM
Jan 27
25 °FClear.No wind100%30.21 "Hg9 mi
10:00 PM28 °FClear.3 mph86%30.17 "Hg9 mi
9:00 PM30 °FClear.6 mph86%30.14 "Hg9 mi
8:00 PM30 °FClear.8 mph86%30.11 "Hg9 mi
7:00 PM34 °FClear.9 mph81%30.08 "Hg9 mi
6:00 PM37 °FPassing clouds.8 mph75%30.06 "Hg9 mi
5:00 PM39 °FMostly cloudy.5 mph70%30.03 "Hg9 mi
4:00 PM43 °FBroken clouds.9 mph57%30.00 "Hg9 mi
3:00 PM43 °FMore clouds than sun.13 mph61%29.97 "Hg9 mi
2:00 PM43 °FOvercast.12 mph61%29.95 "Hg9 mi
1:00 PM43 °FScattered clouds.13 mph61%29.93 "Hg9 mi
12:00 PM41 °FScattered clouds.12 mph76%29.93 "Hg9 mi
11:00 AM37 °FSunny.12 mph87%29.91 "Hg9 mi
10:00 AM36 °FBroken clouds.10 mph100%29.89 "Hg9 mi
9:00 AM36 °FScattered clouds.10 mph100%29.86 "Hg9 mi
8:00 AM36 °FClear.10 mph100%29.83 "Hg9 mi
7:00 AM34 °FPartly cloudy.12 mph100%29.80 "Hg9 mi
6:00 AM34 °FClear.9 mph100%29.79 "Hg9 mi
5:00 AM34 °FPassing clouds.12 mph100%29.78 "Hg9 mi
4:50 AM34 °FPassing clouds.14 mph100%29.78 "Hg9 mi
4:00 AM32 °FClear.2 mph100%29.79 "Hg9 mi
3:00 AM32 °FClear.3 mph100%29.80 "Hg9 mi
2:04 AM32 °FFog.5 mph100%29.79 "Hg1 mi
Weather by CustomWeather, © 2014

See weather overviewHow to use our weather pages